METLOCID,DATE_TIME,AVG_RH,STDDEV_RH,MIN_RH,MAX_RH,N_RH,N_COMMENTS
FLMM,1/8/11,30.66923077,0.493700894,29.9,31.6,52,52
FLMM,1/9/11,29.8375,0.54988037,29,31.2,96,96
FLMM,1/10/11,29.75833333,1.035848665,28.2,31.8,96,96
FLMM,1/11/11,30.00520833,0.796356148,28.8,31.7,96,96
FLMM,1/12/11,29.09791667,0.61882387,27.5,30.2,96,96
FLMM,1/13/11,29.05520833,1.25470649,27.1,30.8,96,96
FLMM,1/14/11,29.99479167,0.723786795,29.1,31.3,96,96
FLMM,1/15/11,30.08854167,1.145046061,28.1,32.1,96,96
FLMM,1/16/11,31.00625,0.486190887,30.1,31.8,96,96
FLMM,1/17/11,32.35625,1.670159936,29.9,34.9,96,96
FLMM,1/18/11,33.62604167,0.823119201,32.2,35.6,96,96
FLMM,1/19/11,32.0875,0.546808925,30.7,33.4,96,96
FLMM,1/20/11,30.55729167,0.613144577,29.6,32.8,96,96
FLMM,1/21/11,29.890625,0.807736034,28.5,32,96,96
FLMM,1/22/11,30.79791667,1.261325883,27.9,32.8,96,96
FLMM,1/23/11,27.98125,0.589792559,26.7,29.1,96,96
FLMM,1/24/11,28.07083333,1.291585453,23.8,30.5,96,96
FLMM,1/25/11,29.53020833,1.150571464,27.4,31.5,96,96
FLMM,1/26/11,28.62916667,1.154571387,27.3,31.2,96,96
FLMM,1/27/11,27.30208333,0.50512722,25.7,28.3,96,96
FLMM,1/28/11,26.38125,1.124213175,24.9,29.3,96,96
FLMM,1/29/11,28.21458333,1.085694458,25.5,29.4,96,96
FLMM,1/30/11,25.83125,1.083008723,24.6,29.7,96,96
FLMM,1/31/11,25.725,0.689622322,24.4,27,96,96
FLMM,2/1/11,26.84583333,2.121564302,23.6,30.7,96,96
FLMM,2/2/11,28.909375,0.649060556,27.2,30.5,96,96
FLMM,2/3/11,26.2375,0.713073407,24.9,28.5,96,96
FLMM,2/4/11,24.203125,1.22375205,22.1,26.3,96,96
FLMM,2/5/11,25.36979167,1.38929136,23.3,27.5,96,96
FLMM,2/6/11,27.16354167,1.042074832,25.4,29.3,96,96
FLMM,2/7/11,26.95833333,2.36249942,22.4,30.9,96,96
FLMM,2/8/11,23.72604167,1.837288895,20.6,26.5,96,96
FLMM,2/9/11,24.90729167,1.304667313,22.8,27.7,96,96
FLMM,2/10/11,25.36666667,1.663899457,23,28.1,96,96
FLMM,2/11/11,22.53333333,1.073966251,20.1,24.6,96,96
FLMM,2/12/11,22.63333333,1.163358719,21,25.2,96,96
FLMM,2/13/11,22.38645833,1.405074996,19.9,25.6,96,96
FLMM,2/14/11,21.975,1.389888295,19.7,24.9,96,96
FLMM,2/15/11,22.46354167,1.088225963,21,24.8,96,96
FLMM,2/16/11,22.7375,2.107892437,19.1,25.2,96,96
FLMM,2/17/11,25.55729167,1.15382611,23.8,28,96,96
FLMM,2/18/11,25.553125,0.799862241,24.5,27.3,96,96
FLMM,2/19/11,25.47395833,0.552362351,24.4,26.9,96,96
FLMM,2/20/11,27.53958333,1.982580942,24.4,30.5,96,96
FLMM,2/21/11,27.71145833,1.299057941,25.6,29.9,96,96
FLMM,2/22/11,23.97916667,1.124924949,22,25.8,96,96
FLMM,2/23/11,23.84791667,1.250092979,21.7,25.4,96,96
FLMM,2/24/11,27.115625,1.878595675,24.5,30.6,96,96
FLMM,2/25/11,29.71770833,1.863273565,26.7,33.6,96,96
FLMM,2/26/11,29.46979167,1.606049078,26.8,32.5,96,96
FLMM,2/27/11,27.96354167,1.558549919,25.1,31.3,96,96
FLMM,2/28/11,25.88125,2.026057229,21.9,29.6,96,96
FLMM,3/1/11,22.10520833,0.788385398,19.6,23,96,96
FLMM,3/2/11,24.11354167,1.181401469,22.4,27.1,96,96
FLMM,3/3/11,19.46145833,1.541248284,17.3,23.2,96,96
FLMM,3/4/11,16.56354167,1.165569189,14.6,18.5,96,96
FLMM,3/5/11,16.89270833,1.623786659,14.1,19.1,96,96
FLMM,3/6/11,20.41145833,1.627259226,17.6,22.7,96,96
FLMM,3/7/11,22.159375,1.130493895,20.2,23.5,96,96
FLMM,3/8/11,23.32708333,0.686942757,21.5,24.7,96,96
FLMM,3/9/11,22.92916667,1.921617557,19.3,26.6,96,96
FLMM,3/10/11,17.72291667,2.019925958,12.3,20.1,96,96
FLMM,3/11/11,13.078125,0.951365017,11.2,14.9,96,96
FLMM,3/12/11,18.796875,2.859792158,13.5,22.7,96,96
FLMM,3/13/11,14.99270833,1.252806936,11.2,17,96,96
FLMM,3/14/11,13.490625,1.517066291,11.3,17.5,96,96
FLMM,3/15/11,12.98229167,1.326570155,10.5,16.6,96,96
FLMM,3/16/11,16.49375,1.739801108,13,19.7,96,96
FLMM,3/17/11,19.325,1.855347889,13.6,22.2,96,96
FLMM,3/18/11,19.934375,1.669593592,14.7,22.2,96,96
FLMM,3/19/11,18.22291667,1.602135362,12.7,20.7,96,96
FLMM,3/20/11,20.53229167,1.156172887,17.8,22.5,96,96
FLMM,3/21/11,21.23958333,0.772484599,20.1,23.4,96,96
FLMM,3/22/11,25.0125,1.358036508,21.5,27.2,96,96
FLMM,3/23/11,24.34895833,0.839924156,22,25.8,96,96
FLMM,3/24/11,24.26041667,1.758915884,21.2,27.1,96,96
FLMM,3/25/11,24.54791667,1.066324644,19.8,27,96,96
FLMM,3/26/11,25.984375,2.309446419,19.6,29.3,96,96
FLMM,3/27/11,19.34270833,4.84213404,10.7,29.6,96,96
FLMM,3/28/11,12.38958333,3.091226266,7.8,19.2,96,96
FLMM,3/29/11,15.67604167,1.348507541,10.2,17.8,96,96
FLMM,3/30/11,16.18229167,1.598288215,12.8,19.3,96,96
FLMM,3/31/11,13.65833333,1.417905547,11.7,17.6,96,96
FLMM,4/1/11,14.87604167,1.019571096,11.9,18,96,96
FLMM,4/2/11,13.18125,1.309022335,10.6,16.9,96,96
FLMM,4/3/11,13.82395833,1.668705442,10.3,16.6,96,96
FLMM,4/4/11,12.284375,1.962347044,8.6,15.6,96,96
FLMM,4/5/11,10.6,2.085589655,7.1,14.6,96,96
FLMM,4/6/11,3.958333333,1.897902813,0.4,7.4,96,96
FLMM,4/7/11,7.3375,4.673536923,0.4,13.2,96,96
FLMM,4/8/11,12.075,1.265576632,9.6,13.9,96,96
FLMM,4/9/11,7.116666667,2.404192245,3.9,10.7,96,96
FLMM,4/10/11,11.41875,3.691250323,5.5,17.7,96,96
FLMM,4/11/11,18.97916667,1.670922636,15.8,21.9,96,96
FLMM,4/12/11,18.609375,0.639255838,16.8,20,96,96
FLMM,4/13/11,17.19479167,0.800969122,15.9,19.4,96,96
FLMM,4/14/11,21.1,2.336484088,18.1,25.4,96,96
FLMM,4/15/11,26.10520833,1.117550874,24.7,28.3,96,96
FLMM,4/16/11,29.28125,1.325007448,26.1,31.1,96,96
FLMM,4/17/11,24.8375,1.389982961,16.8,26.7,96,96
FLMM,4/18/11,22.64479167,2.946143591,12.6,26.1,96,96
FLMM,4/19/11,23.434375,1.420291158,18.3,25.6,96,96
FLMM,4/20/11,24.359375,1.166693765,18.2,26.8,96,96
FLMM,4/21/11,23.771875,2.923217518,17,27.3,96,96
FLMM,4/22/11,13.92083333,5.373441839,7.2,24.2,96,96
FLMM,4/23/11,8.801041667,3.074940985,3.5,13.8,96,96
FLMM,4/24/11,12.140625,1.730079288,8.8,16.1,96,96
FLMM,4/25/11,10.32083333,3.824269223,2.5,16.8,96,96
FLMM,4/26/11,14.91770833,3.258995479,8,19.9,96,96
FLMM,4/27/11,20.84895833,1.576070717,17.5,23.2,96,96
FLMM,4/28/11,15.43541667,1.245706662,12.6,17.5,96,96
FLMM,4/29/11,18.40833333,0.639352743,17.6,20,96,96
FLMM,4/30/11,20.12708333,0.74303491,18.6,21.2,96,96
FLMM,5/1/11,18.55208333,0.509277955,17.3,19.9,96,96
FLMM,5/2/11,16.915625,1.121589861,15,18.9,96,96
FLMM,5/3/11,14.43125,1.621195952,11,17,96,96
FLMM,5/4/11,16.58020833,2.236473718,13.1,19.3,96,96
FLMM,5/5/11,9.128125,2.023738236,6.5,13.6,96,96
FLMM,5/6/11,7.771875,1.907806849,5.6,12.6,96,96
FLMM,5/7/11,10.90104167,1.502593883,8.6,14.9,96,96
FLMM,5/8/11,6.936458333,1.346505793,3.8,9.7,96,96
FLMM,5/9/11,12.02395833,2.168664143,7.4,16.1,96,96
FLMM,5/10/11,16.90520833,3.821913816,10.3,24.2,96,96
FLMM,5/11/11,18.17916667,2.407703281,11.2,22.3,96,96
FLMM,5/12/11,22.465625,1.409130238,15.6,24.1,96,96
FLMM,5/13/11,19.31666667,1.314106994,16.9,22.5,96,96
FLMM,5/14/11,15.25729167,1.728384996,11.6,18.3,96,96
FLMM,5/15/11,13.228125,0.761121489,11.5,14.9,96,96
FLMM,5/16/11,14.596875,1.202580832,12.7,17.1,96,96
FLMM,5/17/11,15.771875,0.819461071,14.7,17.9,96,96
FLMM,5/18/11,15.95833333,0.659930884,14.7,17.2,96,96
FLMM,5/19/11,18.46145833,1.220471849,16.6,20.4,96,96
FLMM,5/20/11,19.30104167,0.468928183,18.2,20.3,96,96
FLMM,5/21/11,19.19479167,0.244678002,18.7,19.7,96,96
FLMM,5/22/11,20.63854167,2.742276035,15.4,24.1,96,96
FLMM,5/23/11,12.36979167,2.322843982,8.4,16.5,96,96
FLMM,5/24/11,11.8125,1.093256844,9.2,14.6,96,96
FLMM,5/25/11,10.77395833,3.232833035,4.8,14.2,96,96
FLMM,5/26/11,8.975,2.866136222,4.6,14.4,96,96
FLMM,5/27/11,14.25208333,4.400430103,5.9,19.2,96,96
FLMM,5/28/11,8.596875,0.824423642,7,10.8,96,96
FLMM,5/29/11,16.11666667,2.302889108,10.8,19.7,96,96
FLMM,5/30/11,15.61875,2.063074481,13.3,19.6,96,96
FLMM,5/31/11,14.95729167,0.777410654,13.7,16.1,96,96
FLMM,6/1/11,15.25520833,2.002149886,11.8,18.3,96,96
FLMM,6/2/11,12.54791667,0.699921675,11.8,14.4,96,96
FLMM,6/3/11,14.03333333,1.11219713,12.3,16.9,96,96
FLMM,6/4/11,11.72916667,1.954369823,8.1,16.4,96,96
FLMM,6/5/11,12.26875,0.772052971,10,13.4,96,96
FLMM,6/6/11,16.84583333,2.65412952,13.4,21.8,96,96
FLMM,6/7/11,16.128125,1.419762999,13.9,19.5,96,96
FLMM,6/8/11,12.87291667,1.261617939,10.9,16,96,96
FLMM,6/9/11,18.23020833,0.923508162,16.2,20.1,96,96
FLMM,6/10/11,18.34583333,1.435410571,16.3,20.4,96,96
FLMM,6/11/11,16.23958333,0.920123466,13.9,17.6,96,96
FLMM,6/12/11,13.42916667,0.702913735,12.5,14.9,96,96
FLMM,6/13/11,16.840625,1.586162408,14.1,19.6,96,96
FLMM,6/14/11,18.028125,1.079932076,16.3,19.7,96,96
FLMM,6/15/11,17.89791667,1.191193932,16.2,20.8,96,96
FLMM,6/16/11,20.13854167,0.935990305,18.7,21.9,96,96
FLMM,6/17/11,23.72083333,0.655007701,22,25.2,96,96
FLMM,6/18/11,22.64791667,1.148910621,20.3,25.1,96,96
FLMM,6/19/11,15.0125,2.769809038,10.6,20.3,96,96
FLMM,6/20/11,14.94166667,1.27284734,10.8,17.9,96,96
FLMM,6/21/11,13.56979167,1.966515475,9.6,17.1,96,96
FLMM,6/22/11,13.334375,1.727902783,9.4,16.6,96,96
FLMM,6/23/11,7.134375,3.185652974,2.5,14.1,96,96
FLMM,6/24/11,12.05520833,2.58611148,6.4,16,96,96
FLMM,6/25/11,10.23333333,0.844507538,8.7,11.9,96,96
FLMM,6/26/11,7.891666667,0.877276487,5.8,9.6,96,96
FLMM,6/27/11,10.93333333,1.802726979,7.2,13.8,96,96
FLMM,6/28/11,13.803125,0.776422718,12,15.6,96,96
FLMM,6/29/11,16.175,1.279967105,13.3,18,96,96
FLMM,6/30/11,14.59583333,0.870561424,12.9,16.6,96,96
FLMM,7/1/11,15.0375,1.040166991,13,16.9,96,96
FLMM,7/2/11,13.37083333,1.436363586,11.1,16.7,96,96
FLMM,7/3/11,11.07083333,3.153641727,7.2,16.9,96,96
FLMM,7/4/11,15.28125,1.564293182,11,17.6,96,96
FLMM,7/5/11,16.29270833,1.846660986,12.7,21.6,96,96
FLMM,7/6/11,13.89375,3.417872915,6.8,18.6,96,96
FLMM,7/7/11,8.579166667,1.915472549,5.5,12,96,96
FLMM,7/8/11,15.44270833,2.133183674,10.5,18.2,96,96
FLMM,7/9/11,15.25833333,0.927891403,13.2,17.7,96,96
FLMM,7/10/11,14.35104167,0.967361555,12.7,17,96,96
FLMM,7/11/11,17.23020833,1.268577304,15.2,19.7,96,96
FLMM,7/12/11,18.93333333,2.058137465,13.2,21.3,96,96
FLMM,7/13/11,11.15,0.909019136,9.1,13,96,96
FLMM,7/14/11,16.51354167,2.14758713,12.3,19.8,96,96
FLMM,7/15/11,22.91041667,2.033895881,19.4,25.9,96,96
FLMM,7/16/11,21.31458333,3.383053095,15.8,25.8,96,96
FLMM,7/17/11,15.378125,1.651487567,12.1,18.8,96,96
FLMM,7/18/11,21.99895833,1.019028928,19,23.2,96,96
FLMM,7/19/11,20.3,1.212305329,18.6,23.1,96,96
FLMM,7/20/11,20.009375,1.126903361,18.3,21.9,96,96
FLMM,7/21/11,17.28958333,3.223025031,12.6,22.3,96,96
FLMM,7/22/11,15.73854167,3.957228424,8.6,23.3,96,96
FLMM,7/23/11,18.825,2.398815497,13.2,24.6,96,96
FLMM,7/24/11,11.928125,0.719166641,10.6,13.9,96,96
FLMM,7/25/11,11.51145833,0.495425344,10.3,12.9,96,96
FLMM,7/26/11,14.71666667,1.665733072,12,18.3,96,96
FLMM,7/27/11,18.584375,0.607380593,17.1,20.2,96,96
FLMM,7/28/11,16.62916667,2.489342195,12.2,21.6,96,96
FLMM,7/29/11,13.35520833,0.880414949,11.7,15.3,96,96
FLMM,7/30/11,14.759375,1.517586597,11.5,17.1,96,96
FLMM,7/31/11,14.53645833,2.352652245,11.3,18,96,96
FLMM,8/1/11,20.48333333,1.185053112,17.5,23,96,96
FLMM,8/2/11,23.38020833,1.820504256,20.9,27.1,96,96
FLMM,8/3/11,27.66666667,0.88527922,22.5,28.3,96,96
FLMM,8/4/11,25.9125,0.612200518,24.7,26.9,96,96
FLMM,8/5/11,22.91354167,3.279076243,13.8,28.6,96,96
FLMM,8/6/11,21.13333333,3.023823535,13.2,27.6,96,96
FLMM,8/7/11,16.44270833,1.620899347,14.2,20.8,96,96
FLMM,8/8/11,12.45625,1.987318347,9.4,18.1,96,96
FLMM,8/9/11,8.489583333,1.912753824,5.1,12.6,96,96
FLMM,8/10/11,12.23854167,2.191340363,9.8,17.3,96,96
FLMM,8/11/11,19.82708333,1.074437838,17.2,21.8,96,96
FLMM,8/12/11,20.32916667,0.951222667,17.8,22,96,96
FLMM,8/13/11,16.31145833,0.945111499,13.9,18.3,96,96
FLMM,8/14/11,14.10729167,1.303618025,11.5,17,96,96
FLMM,8/15/11,18.98020833,1.420794425,14.8,21.4,96,96
FLMM,8/16/11,17.85520833,1.614269904,15.3,21.3,96,96
FLMM,8/17/11,17.02708333,4.021769162,6.4,23.4,96,96
FLMM,8/18/11,18.84479167,3.105067837,6.4,22.8,96,96
FLMM,8/19/11,6.202083333,4.872219405,0.5,16.1,96,96
FLMM,8/20/11,2.09375,1.373571028,0.4,5.5,96,96
FLMM,8/21/11,7.773958333,2.364751897,3.6,11.2,96,96
FLMM,8/22/11,7.013541667,1.810415468,4.7,11.2,96,96
FLMM,8/23/11,17.971875,2.492037979,11.6,21.5,96,96
FLMM,8/24/11,16.30416667,2.748087054,13.3,21.7,96,96
FLMM,8/25/11,15.36145833,0.801888533,14.2,17.9,96,96
FLMM,8/26/11,15.87604167,0.961111724,13.7,18,96,96
FLMM,8/27/11,18.728125,1.589617837,16.2,21.4,96,96
FLMM,8/28/11,21.75625,0.635247569,20.7,23.1,96,96
FLMM,8/29/11,20.31666667,0.388700038,19.4,21,96,96
FLMM,8/30/11,20.64270833,0.922895306,18.9,22.7,96,96
FLMM,8/31/11,19.153125,1.095056175,17.2,21.7,96,96
FLMM,9/1/11,21.465625,1.491084249,19.1,24.4,96,96
FLMM,9/2/11,20.246875,0.632614146,19.2,22.5,96,96
FLMM,9/3/11,21.271875,2.025713812,18.2,25.3,96,96
FLMM,9/4/11,21.06666667,1.30502403,18.2,22.8,96,96
FLMM,9/5/11,18.88333333,1.693061174,16,22.5,96,96
FLMM,9/6/11,20.971875,1.854536579,16.9,23.9,96,96
FLMM,9/7/11,17.12291667,4.35342525,8.5,23,96,96
FLMM,9/8/11,10.71041667,1.703586259,8,13.3,96,96
FLMM,9/9/11,12.89375,1.656172665,10,15.5,96,96
FLMM,9/10/11,17.93958333,1.229589505,15.7,19.5,96,96
FLMM,9/11/11,20.621875,1.189002512,19.1,22.9,96,96
FLMM,9/12/11,23.54895833,0.602974171,22.5,25.1,96,96
FLMM,9/13/11,23.23541667,0.886267058,20.9,24.9,96,96
FLMM,9/14/11,19.93541667,1.350475875,17.4,23,96,96
FLMM,9/15/11,21.725,0.855816016,19.3,23.3,96,96
FLMM,9/16/11,22.03541667,1.110427056,19,23.8,96,96
FLMM,9/17/11,19.06041667,1.100285051,12.7,20.9,96,96
FLMM,9/18/11,20.89375,2.264964854,17.5,25.8,96,96
FLMM,9/19/11,16.109375,2.692292239,9.3,20.3,96,96
FLMM,9/20/11,13.65833333,2.879132423,5.9,19.9,96,96
FLMM,9/21/11,12.15833333,0.61979057,10.5,14,96,96
FLMM,9/22/11,13.48541667,1.426292888,8.5,17.5,96,96
FLMM,9/23/11,17.38020833,2.325086067,7.2,23.2,96,96
FLMM,9/24/11,9.026041667,4.111044042,1.7,15.9,96,96
FLMM,9/25/11,3.503125,1.820899322,0.4,7.6,96,96
FLMM,9/26/11,10.984375,3.597845207,3.4,15.1,96,96
FLMM,9/27/11,20.97604167,3.225808582,14,25.4,96,96
FLMM,9/28/11,16.31979167,4.444100046,7.5,24.7,96,96
FLMM,9/29/11,11.76875,4.847013459,3.5,20.5,96,96
FLMM,9/30/11,7.363541667,4.115647159,1.6,15.6,96,96
FLMM,10/1/11,5.416666667,3.933624729,0.4,12.1,96,96
FLMM,10/2/11,16.621875,3.011039447,10,20.5,96,96
FLMM,10/3/11,18.45520833,4.289028102,9.3,22.7,96,96
FLMM,10/4/11,18.22291667,4.532861979,8.8,24.4,96,96
FLMM,10/5/11,22.56666667,1.664784903,19.5,25.4,96,96
FLMM,10/6/11,19.78333333,1.39959894,17.3,22,96,96
FLMM,10/7/11,23.690625,1.210313411,22,25.7,96,96
FLMM,10/8/11,23.003125,1.096161064,21,24.9,96,96
FLMM,10/9/11,22.3,2.072222301,15.6,25.4,96,96
FLMM,10/10/11,25.465625,2.50287532,20.7,29.9,96,96
FLMM,10/11/11,17.340625,1.906364858,12.3,20.5,96,96
FLMM,10/12/11,11.79479167,1.511177289,9.3,17.3,96,96
FLMM,10/13/11,13.61979167,2.916472989,8.5,19.1,96,96
FLMM,10/14/11,18.00104167,2.728774346,13.7,23.6,96,96
FLMM,10/15/11,10.6375,4.491869849,2.8,16.8,96,96
FLMM,10/16/11,16.03125,3.067634525,10.4,19.5,96,96
FLMM,10/17/11,18.66666667,1.197687831,15.4,20.6,96,96
FLMM,10/18/11,17.89479167,0.911605846,15.8,20.3,96,96
FLMM,10/19/11,16.91145833,2.286752227,11.4,20.5,96,96
FLMM,10/20/11,11.840625,1.371175303,9.5,14.1,96,96
FLMM,10/21/11,14.23125,1.275626781,11.1,15.8,96,96
FLMM,10/22/11,13.15,1.772598449,10.6,15.9,96,96
FLMM,10/23/11,15.378125,1.602117226,12.8,18.2,96,96
FLMM,10/24/11,16.84166667,1.825934032,14,19.4,96,96
FLMM,10/25/11,17.86145833,1.21606525,14.7,20,96,96
FLMM,10/26/11,18.64166667,2.33633391,13.9,21.3,96,96
FLMM,10/27/11,23.58333333,1.996452995,20.2,26.5,96,96
FLMM,10/28/11,22.821875,1.419132658,19.2,25.8,96,96
FLMM,10/29/11,18.946875,1.080735921,16.6,21.3,96,96
FLMM,10/30/11,17.73020833,1.92906412,14.7,21,96,96
FLMM,10/31/11,16.37395833,1.39399047,14.4,18.4,96,96
FLMM,11/1/11,18.71770833,2.377260466,14.8,21.7,96,96
FLMM,11/2/11,26.04479167,2.162253687,21.5,28.7,96,96
FLMM,11/3/11,25.82083333,0.519497058,24.2,26.9,96,96
FLMM,11/4/11,24.79583333,1.054605605,23.2,27.5,96,96
FLMM,11/5/11,24.74375,1.261812606,22.5,26.5,96,96
FLMM,11/6/11,25.396875,0.371186753,24.7,26.2,96,96
FLMM,11/7/11,26.30104167,1.072183683,24.2,27.7,96,96
FLMM,11/8/11,27.615625,1.280651818,25.5,29.3,96,96
FLMM,11/9/11,27.38020833,1.248461773,25,29.4,96,96
FLMM,11/10/11,28.09479167,1.143804344,26.1,30,96,96
FLMM,11/11/11,26.11979167,1.059852998,23.3,27.6,96,96
FLMM,11/12/11,24.95520833,1.020306434,22.7,26.5,96,96
FLMM,11/13/11,27.39375,1.562508947,24.2,29.5,96,96
FLMM,11/14/11,29.49270833,1.369690306,27,31.2,96,96
FLMM,11/15/11,31.42395833,1.146963478,28.9,33,96,96
FLMM,11/16/11,32.77291667,1.03175672,31.1,34.6,96,96
FLMM,11/17/11,29.115625,0.801489157,27.9,31.3,96,96
FLMM,11/18/11,27.446875,1.481887355,24.7,29.8,96,96
FLMM,11/19/11,22.096875,1.458871455,19.2,25,96,96
FLMM,11/20/11,23.31666667,1.692874644,20.6,25.8,96,96
FLMM,11/21/11,26.81458333,1.567766038,24.3,29,96,96
FLMM,11/22/11,27.64479167,0.608340243,26.7,29.1,96,96
FLMM,11/23/11,27.865625,1.075451252,26.1,29.6,96,96
FLMM,11/24/11,27.609375,0.862685907,26.2,29.3,96,96
FLMM,11/25/11,25.64583333,0.332745095,24.9,26.3,96,96
FLMM,11/26/11,28.68645833,2.131350933,25.4,32.1,96,96
FLMM,11/27/11,27.56666667,0.885160309,25.8,29.2,96,96
FLMM,11/28/11,28.74895833,1.140082619,27,30.2,96,96
FLMM,11/29/11,30.07291667,1.016959262,27.7,31.7,96,96
FLMM,11/30/11,30.51875,0.641759506,29.4,32,96,96
FLMM,12/1/11,30.51354167,1.155546787,28.6,32.7,96,96
FLMM,12/2/11,30.45104167,0.951009966,28.6,32.3,96,96
FLMM,12/3/11,30.34479167,1.645463927,26.9,32.5,96,96
FLMM,12/4/11,28.084375,1.238787873,26,30,96,96
FLMM,12/5/11,28.09791667,0.643179465,27,29.9,96,96
FLMM,12/6/11,30.09583333,1.617660212,27.1,32.3,96,96
FLMM,12/7/11,30.34583333,1.514207569,28.1,32.9,96,96
FLMM,12/8/11,28.8875,1.16810688,27.2,31.1,96,96
FLMM,12/9/11,29.565625,1.136923654,27.7,31.1,96,96
FLMM,12/10/11,31.62291667,1.17826627,29.9,34.4,96,96
FLMM,12/11/11,28.03333333,0.737658695,26.9,29.8,96,96
FLMM,12/12/11,27.50208333,1.089372506,25.9,29.1,96,96
FLMM,12/13/11,27.63229167,0.733914493,26.6,28.9,96,96
FLMM,12/14/11,31.934375,9.525995769,23.7,54.7,96,62
FLMM,12/15/11,40.17291667,5.935149165,32.2,52.9,96,0
FLMM,12/16/11,70.871875,23.77400041,42.1,100,96,1
FLMM,12/17/11,77.64166667,14.03766112,56.5,100,96,5
FLMM,12/18/11,64.740625,5.818547081,52.7,74.4,96,0
FLMM,12/19/11,46.1875,10.31972307,28.5,65.4,96,0
FLMM,12/20/11,47.44166667,15.53348618,25.8,70.3,96,0
FLMM,12/21/11,46.33958333,10.41743962,24.1,64.8,96,0
FLMM,12/22/11,73.02083333,4.653847682,63.9,86.7,96,0
FLMM,12/23/11,55.06770833,12.69434598,36.5,77.8,96,0
FLMM,12/24/11,46.053125,12.51627953,31.1,67.8,96,0
FLMM,12/25/11,42.153125,11.06986381,22.2,63.5,96,0
FLMM,12/26/11,42.89270833,8.624008651,24.1,56.7,96,0
FLMM,12/27/11,29.359375,9.959650999,17.8,58.3,96,0
FLMM,12/28/11,28.73645833,7.188603844,14.3,45.5,96,0
FLMM,12/29/11,29.44895833,10.84274188,14.2,59.3,96,0
FLMM,12/30/11,32.52604167,4.316510403,25.6,44,96,0
FLMM,12/31/11,46.01041667,6.604615279,33.4,62,96,0
FLMM,1/1/12,31.33541667,6.286308919,21.7,49.7,96,0
FLMM,1/2/12,66.175,16.4615405,46.4,99.2,96,0
FLMM,1/3/12,60.378125,12.52746207,43.7,85.8,96,0
FLMM,1/4/12,66.57291667,7.625076071,54.8,83.4,96,0
FLMM,1/5/12,65.96458333,8.233282637,52.8,81,96,0
FLMM,1/6/12,54.55416667,5.304375883,45.9,68,96,0
FLMM,1/7/12,52.10520833,10.95367633,36.5,73.9,96,0
FLMM,1/8/12,67.68958333,5.275494073,58.9,85.5,96,0
FLMM,1/9/12,53.57395833,21.74902415,25.9,91.3,96,0
FLMM,1/10/12,39.50416667,2.868923021,32.3,45.3,96,0
FLMM,1/11/12,24.07083333,13.30168898,11.9,60.6,96,0
FLMM,1/12/12,31.721875,11.34919615,11.6,54.5,96,0
FLMM,1/13/12,34.68854167,7.021423904,25.2,61.7,96,0
FLMM,1/14/12,28.34583333,6.155064952,16,39.1,96,0
FLMM,1/15/12,29.20833333,6.682588006,19.4,41.7,96,0
FLMM,1/16/12,43.22083333,5.729864822,35.4,55.1,96,0
FLMM,1/17/12,42.4375,8.143518572,26.7,57.1,96,0
FLMM,1/18/12,24.04166667,3.35209806,16.4,32.9,96,0
FLMM,1/19/12,43.26145833,8.304702153,30.4,62,96,0
FLMM,1/20/12,54.04166667,4.359011638,48,62.5,96,0
FLMM,1/21/12,43.42395833,13.08423515,24.3,65.8,96,0
FLMM,1/22/12,57.48333333,15.72077852,33.8,82.2,96,0
FLMM,1/23/12,61.10104167,10.29314023,48.5,77.3,96,0
FLMM,1/24/12,83.16875,12.6418962,52.6,98.8,96,0
FLMM,1/25/12,65.17708333,11.53844356,40.6,90.5,96,0
FLMM,1/26/12,71.1371875,11.61075905,45.5,91.05,96,0
FLMM,1/27/12,85.08489583,5.015164372,77.71,94.05,96,0
FLMM,1/28/12,83.73979167,2.44967838,79.67,89.29,96,0
FLMM,1/29/12,72.09677083,10.9780084,48.68,89.71,96,0
FLMM,1/30/12,55.064375,15.73079908,30.98,85.99,96,0
FLMM,1/31/12,71.02729167,13.93913669,47.27,91.94,96,0
FLMM,2/1/12,57.4115625,6.562990866,45.22,77.42,96,0
FLMM,2/2/12,79.754375,5.700182419,69.33,89.15,96,0
FLMM,2/3/12,75.0071875,9.691354661,56.18,95.23,96,0
FLMM,2/4/12,57.218125,9.720610476,44.1,79.04,96,0
FLMM,2/5/12,69.4228125,13.33317712,49.77,89.08,96,0
FLMM,2/6/12,77.78822917,8.279504561,60.03,88.62,96,0
FLMM,2/7/12,69.85302083,14.61350508,40.02,93.53,96,0
FLMM,2/8/12,29.5153125,7.728341546,19.72,45.77,96,0
FLMM,2/9/12,37.11145833,7.880034862,19.52,54.55,96,0
FLMM,2/10/12,64.40927083,5.184025716,49.72,76.4,96,0
FLMM,2/11/12,63.02333333,4.402682595,55.79,77.26,96,0
FLMM,2/12/12,69.74739583,18.86724995,39.23,98.56,96,0
FLMM,2/13/12,91.31541667,9.530133585,71.52,100,96,6
FLMM,2/14/12,81.1084375,18.7398906,42.74,100,96,1
FLMM,2/15/12,49.94677083,11.79127255,27.65,69.83,96,0
FLMM,2/16/12,28.42604167,2.959542454,21.16,36.19,96,0
FLMM,2/17/12,35.36541667,4.07561217,29.98,48.23,96,0
FLMM,2/18/12,58.89010417,18.06639302,36.67,91.82,96,0
FLMM,2/19/12,96.76729167,1.927474202,91.26,99.23,96,0
FLMM,2/20/12,89.22395833,4.449530426,79.25,97.07,96,0
FLMM,2/21/12,61.33166667,15.84274515,27.94,89.84,96,0
FLMM,2/22/12,29.10729167,6.126701092,20.64,42.8,96,0
FLMM,2/23/12,43.80958333,21.72695972,15.63,81.43,96,0
FLMM,2/24/12,23.00395833,3.924412253,18.16,44.31,96,0
FLMM,2/25/12,28.27614583,10.35033642,19.34,70.91,96,0
FLMM,2/26/12,97.96729167,5.555653447,73.97,100,96,47
FLMM,2/27/12,58.34125,27.87940331,22.69,99.82,96,0
FLMM,2/28/12,26.71635417,10.34197967,15.69,55.86,96,0
FLMM,2/29/12,37.35333333,9.750754537,18.2,58.82,96,0
FLMM,3/1/12,41.035,13.35391352,25.26,84.16,96,0
FLMM,3/2/12,65.62239583,5.957649438,44.2,74.89,96,0
FLMM,3/3/12,45.32583333,7.003596319,34.71,64.59,96,0
FLMM,3/4/12,65.131875,7.019673903,54.4,78.91,96,0
FLMM,3/5/12,68.44739583,7.30237773,54.32,80.43,96,0
FLMM,3/6/12,43.58697917,14.00947951,27.96,71.47,96,0
FLMM,3/7/12,31.7390625,3.363055966,27.31,41.82,96,0
FLMM,3/8/12,46.7228125,7.894827181,33.92,61.3,96,0
FLMM,3/9/12,59.36916667,11.67127167,41.53,80.7,96,0
FLMM,3/10/12,69.6753125,9.50707304,51.37,84.56,96,0
FLMM,3/11/12,80.70520833,5.253281877,73.07,91.82,96,0
FLMM,3/12/12,69.686875,19.7801345,36.42,92.58,96,0
FLMM,3/13/12,72.33770833,12.10117554,38.38,90.65,96,0
FLMM,3/14/12,77.68072917,6.775724975,65.52,91.56,96,0
FLMM,3/15/12,62.5328125,18.29045841,38.5,86.97,96,0
FLMM,3/16/12,28.21552083,11.14632277,11.02,52.1,96,0
FLMM,3/17/12,48.3865625,13.75458315,27.75,76.24,96,0
FLMM,3/18/12,48.61708333,27.45326018,17.51,81.3,96,0
FLMM,3/19/12,23.4334375,6.125759558,13.22,36.47,96,0
FLMM,3/20/12,37.319375,12.32744655,17.71,62.9,96,0
FLMM,3/21/12,55.783125,6.248970663,44.37,67.46,96,0
FLMM,3/22/12,45.52885417,8.584836555,30.85,64.84,96,0
FLMM,3/23/12,75.2746875,14.72228178,38.74,92.62,96,0
FLMM,3/24/12,78.57322917,10.84434526,62.16,92.06,96,0
FLMM,3/25/12,46.624375,13.37334897,28.57,75.72,96,0
FLMM,3/26/12,56.11541667,10.73043256,46.48,88.74,96,0
FLMM,3/27/12,82.2725,10.50705437,66.44,97.7,96,0
FLMM,3/28/12,48.67822917,11.33666599,31.14,70.2,96,0
FLMM,3/29/12,45.68395833,11.90398655,28.56,72.56,96,0
FLMM,3/30/12,80.68447917,2.257218069,73.71,85.47,96,0
FLMM,3/31/12,80.264375,3.144927683,74.86,86.04,96,0
FLMM,4/1/12,79.1359375,5.263080662,66.25,88.43,96,0
FLMM,4/2/12,65.545,10.25181042,45.72,85.3,96,0
FLMM,4/3/12,39.01625,7.057722795,26.41,53.56,96,0
FLMM,4/4/12,32.4675,3.874599877,25.82,45.42,96,0
FLMM,4/5/12,31.44958333,3.14884972,23.46,38.26,96,0
FLMM,4/6/12,40.1753125,12.7543888,23.61,66.66,96,0
FLMM,4/7/12,57.92822917,6.85718248,41,70.28,96,0